TimeCST,TemperatureF,Dew PointF,Humidity,Sea Level PressureIn,VisibilityMPH,Wind Direction,Wind SpeedMPH,Gust SpeedMPH,PrecipitationIn,Events,Conditions,WindDirDegrees,DateUTC
12:15 AM,42.8,37.4,81,29.79,10.0,NNW,4.6,-,N/A,,Overcast,330,2013-03-05 06:15:00
12:35 AM,41.0,35.6,81,29.80,10.0,North,9.2,-,N/A,,Overcast,350,2013-03-05 06:35:00
12:55 AM,41.0,35.6,81,29.81,10.0,NNE,6.9,-,N/A,,Overcast,20,2013-03-05 06:55:00
1:15 AM,41.0,35.6,81,29.81,10.0,ENE,4.6,-,N/A,,Overcast,70,2013-03-05 07:15:00
1:35 AM,41.0,35.6,81,29.81,10.0,Calm,Calm,-,N/A,,Overcast,0,2013-03-05 07:35:00
1:55 AM,41.0,35.6,81,29.79,10.0,East,3.5,-,N/A,,Overcast,100,2013-03-05 07:55:00
2:15 AM,41.0,35.6,81,29.79,10.0,Calm,Calm,-,N/A,,Overcast,0,2013-03-05 08:15:00
2:35 AM,41.0,33.8,76,29.79,10.0,Calm,Calm,-,N/A,,Overcast,0,2013-03-05 08:35:00
2:55 AM,39.2,33.8,81,29.80,10.0,NW,8.1,-,N/A,,Overcast,310,2013-03-05 08:55:00
3:15 AM,39.2,33.8,81,29.82,10.0,NW,8.1,-,N/A,,Overcast,310,2013-03-05 09:15:00
3:35 AM,39.2,33.8,81,29.83,10.0,NW,11.5,-,N/A,,Overcast,310,2013-03-05 09:35:00
3:55 AM,39.2,32.0,75,29.84,10.0,NW,13.8,-,N/A,,Overcast,320,2013-03-05 09:55:00
4:15 AM,37.4,32.0,81,29.85,10.0,NW,11.5,-,N/A,,Overcast,310,2013-03-05 10:15:00
4:35 AM,37.4,32.0,81,29.86,10.0,NW,11.5,-,N/A,,Overcast,310,2013-03-05 10:35:00
4:55 AM,35.6,32.0,87,29.87,7.0,NW,10.4,17.3,N/A,Rain,Light Rain,310,2013-03-05 10:55:00
5:15 AM,35.6,32.0,87,29.89,6.0,WNW,10.4,-,N/A,Rain,Light Rain,300,2013-03-05 11:15:00
5:35 AM,35.6,32.0,87,29.90,4.0,NW,12.7,17.3,0.02,Snow,Light Snow,310,2013-03-05 11:35:00
5:55 AM,33.8,32.0,93,29.90,3.0,WNW,12.7,-,0.04,Snow,Light Snow,300,2013-03-05 11:55:00
6:15 AM,32.0,32.0,100,29.90,1.8,NW,10.4,-,0.07,Snow,Light Snow,310,2013-03-05 12:15:00
6:35 AM,32.0,32.0,100,29.91,1.2,WNW,9.2,-,0.25,Snow,Light Snow,300,2013-03-05 12:35:00
7:35 AM,32.0,32.0,100,29.92,0.8,NW,9.2,-,0.29,Snow,Light Snow,310,2013-03-05 13:35:00
7:55 AM,32.0,32.0,100,29.92,0.8,NW,12.7,-,0.47,Snow,Light Snow,310,2013-03-05 13:55:00
8:15 AM,32.0,32.0,100,29.93,0.8,WNW,9.2,18.4,0.14,Snow,Light Snow,300,2013-03-05 14:15:00
8:35 AM,32.0,32.0,100,29.94,0.5,WNW,11.5,17.3,0.51,Snow,Snow,300,2013-03-05 14:35:00
8:55 AM,32.0,32.0,100,29.94,0.8,NW,10.4,-,0.80,Snow,Light Snow,310,2013-03-05 14:55:00
9:15 AM,32.0,32.0,100,29.94,0.8,NW,13.8,-,0.14,Snow,Light Snow,320,2013-03-05 15:15:00
9:35 AM,32.0,32.0,100,29.95,1.8,NW,12.7,-,0.20,Snow,Light Snow,310,2013-03-05 15:35:00
9:55 AM,33.8,32.0,93,29.95,5.0,WNW,11.5,-,0.20,,Mostly Cloudy,300,2013-03-05 15:55:00
10:15 AM,35.6,30.2,81,29.95,10.0,NW,18.4,31.1,N/A,,Overcast,320,2013-03-05 16:15:00
10:35 AM,35.6,30.2,81,29.96,10.0,WNW,17.3,25.3,N/A,,Overcast,300,2013-03-05 16:35:00
10:55 AM,35.6,28.4,75,29.96,10.0,NW,18.4,28.8,N/A,,Overcast,310,2013-03-05 16:55:00
11:15 AM,35.6,26.6,70,29.97,10.0,WNW,18.4,29.9,N/A,,Overcast,300,2013-03-05 17:15:00
11:35 AM,35.6,26.6,70,29.97,10.0,NW,20.7,27.6,N/A,,Overcast,320,2013-03-05 17:35:00
11:55 AM,35.6,26.6,70,29.97,10.0,NW,21.9,27.6,N/A,,Overcast,320,2013-03-05 17:55:00
12:15 PM,35.6,24.8,65,29.98,10.0,WNW,18.4,27.6,N/A,,Overcast,300,2013-03-05 18:15:00
12:35 PM,37.4,24.8,60,29.98,10.0,WNW,26.5,35.7,N/A,,Overcast,290,2013-03-05 18:35:00
12:55 PM,37.4,24.8,60,29.98,10.0,WNW,27.6,32.2,N/A,,Mostly Cloudy,290,2013-03-05 18:55:00
1:15 PM,37.4,24.8,60,29.99,10.0,WNW,29.9,36.8,N/A,,Overcast,290,2013-03-05 19:15:00
1:35 PM,35.6,23.0,60,30.00,10.0,WNW,19.6,36.8,N/A,,Overcast,290,2013-03-05 19:35:00
1:55 PM,35.6,23.0,60,29.99,10.0,WNW,25.3,34.5,N/A,,Overcast,300,2013-03-05 19:55:00
2:15 PM,33.8,23.0,65,30.01,10.0,WNW,28.8,35.7,N/A,,Overcast,300,2013-03-05 20:15:00
2:35 PM,32.0,23.0,69,30.02,10.0,WNW,20.7,35.7,N/A,,Overcast,300,2013-03-05 20:35:00
2:55 PM,32.0,21.2,64,30.03,10.0,WNW,26.5,35.7,N/A,,Overcast,300,2013-03-05 20:55:00
3:15 PM,32.0,23.0,69,30.04,10.0,WNW,21.9,31.1,N/A,,Overcast,290,2013-03-05 21:15:00
3:35 PM,32.0,21.2,64,30.03,10.0,NW,20.7,35.7,N/A,,Overcast,310,2013-03-05 21:35:00
3:55 PM,33.8,21.2,60,30.03,10.0,WNW,19.6,29.9,N/A,,Overcast,300,2013-03-05 21:55:00
4:15 PM,33.8,23.0,65,30.04,10.0,WNW,26.5,38.0,N/A,,Overcast,290,2013-03-05 22:15:00
4:35 PM,33.8,23.0,65,30.04,10.0,WNW,24.2,34.5,N/A,,Overcast,300,2013-03-05 22:35:00
4:55 PM,33.8,23.0,65,30.04,10.0,West,20.7,33.4,N/A,,Overcast,280,2013-03-05 22:55:00
5:15 PM,33.8,23.0,65,30.05,10.0,WNW,20.7,33.4,N/A,,Overcast,290,2013-03-05 23:15:00
5:35 PM,33.8,23.0,65,30.05,10.0,West,24.2,31.1,N/A,,Overcast,280,2013-03-05 23:35:00
5:55 PM,33.8,23.0,65,30.05,9.0,WNW,31.1,39.1,N/A,Snow,Light Snow,290,2013-03-05 23:55:00
6:15 PM,32.0,24.8,75,30.06,5.0,WNW,20.7,34.5,0.02,Snow,Light Snow,300,2013-03-06 00:15:00
6:35 PM,32.0,26.6,80,30.08,3.0,NW,19.6,31.1,0.10,Snow,Light Snow,310,2013-03-06 00:35:00
6:55 PM,32.0,24.8,75,30.08,10.0,WNW,17.3,24.2,0.10,,Overcast,300,2013-03-06 00:55:00
7:15 PM,32.0,24.8,75,30.08,10.0,WNW,21.9,27.6,N/A,,Overcast,300,2013-03-06 01:15:00
7:35 PM,32.0,24.8,75,30.09,10.0,NW,18.4,33.4,N/A,,Overcast,310,2013-03-06 01:35:00
7:55 PM,32.0,24.8,75,30.10,10.0,WNW,15.0,24.2,N/A,,Overcast,300,2013-03-06 01:55:00
8:15 PM,32.0,24.8,75,30.10,10.0,WNW,17.3,24.2,N/A,,Overcast,300,2013-03-06 02:15:00
8:35 PM,32.0,24.8,75,30.10,10.0,WNW,25.3,31.1,N/A,Rain,Light Rain,300,2013-03-06 02:35:00
8:55 PM,32.0,24.8,75,30.11,10.0,NW,26.5,40.3,N/A,Rain,Light Rain,310,2013-03-06 02:55:00
9:15 PM,32.0,24.8,75,30.12,10.0,NW,21.9,33.4,N/A,Rain,Light Rain,310,2013-03-06 03:15:00
9:35 PM,32.0,24.8,75,30.13,10.0,NW,21.9,29.9,N/A,Rain,Light Rain,310,2013-03-06 03:35:00
9:55 PM,32.0,24.8,75,30.14,10.0,NW,21.9,28.8,N/A,,Overcast,310,2013-03-06 03:55:00
10:15 PM,32.0,24.8,75,30.15,10.0,NW,18.4,27.6,N/A,,Overcast,310,2013-03-06 04:15:00
10:35 PM,32.0,23.0,69,30.15,10.0,NW,19.6,28.8,N/A,,Overcast,310,2013-03-06 04:35:00
10:55 PM,32.0,23.0,69,30.15,10.0,NW,25.3,32.2,N/A,,Overcast,310,2013-03-06 04:55:00
11:15 PM,32.0,23.0,69,30.15,10.0,NW,26.5,34.5,N/A,Rain,Light Rain,310,2013-03-06 05:15:00
11:35 PM,32.0,24.8,75,30.17,8.0,NW,15.0,-,N/A,Rain,Light Rain,320,2013-03-06 05:35:00
11:55 PM,32.0,26.6,80,30.18,4.0,NW,15.0,27.6,0.01,Snow,Light Snow,310,2013-03-06 05:55:00